1486515600.38,35249,10.44,72886.8,-8.03,-34.25,-34.77,0,*55
1486515601.62,35250,10.44,72886.8,-8.01,-34.19,-34.77,0,*50
1486515602.83,35251,10.44,72886.3,-8.01,-34.25,-34.77,0,*5E
1486515604.04,35252,10.44,72888.8,-8.01,-34.25,-34.77,0,*5D
1486515605.31,35253,10.44,72884.8,-7.99,-34.19,-34.77,0,*5D
1486515606.52,35254,10.44,72886.5,-8.01,-34.25,-34.77,0,*5B
1486515607.76,35255,10.44,72884.8,-7.99,-34.25,-34.71,0,*52
1486515608.96,35256,10.44,72886.3,-8.01,-34.25,-34.89,0,*58
1486515610.2,35257,10.44,72886.0,-7.99,-34.25,-34.71,0,*50
1486515611.44,35258,10.44,72886.5,-8.01,-34.19,-34.77,0,*58
1486515612.7,35259,10.44,72888.5,-7.99,-34.35,-34.89,0,*58
1486515613.91,35260,10.44,72886.0,-8.01,-34.25,-34.89,0,*5D
1486515615.17,35261,10.44,72884.0,-7.99,-34.35,-34.89,0,*53
1486515616.39,35262,10.44,72884.5,-8.01,-34.25,-34.77,0,*5E
1486515617.62,35263,10.44,72886.0,-7.99,-34.25,-34.89,0,*50
1486515618.88,35264,10.44,72888.8,-7.99,-34.35,-34.89,0,*56
1486515620.15,35265,10.44,72886.0,-7.99,-34.35,-34.89,0,*57
1486515621.41,35266,10.44,72886.5,-7.99,-34.25,-34.95,0,*58
1486515622.65,35267,10.44,72882.3,-7.99,-34.25,-34.77,0,*55
1486515623.91,35268,10.44,72888.0,-7.99,-34.35,-34.89,0,*5A
1486515625.18,35269,10.44,72886.0,-8.01,-34.35,-34.95,0,*58
1486515626.44,35270,10.44,72886.5,-7.99,-34.35,-34.77,0,*52
1486515627.68,35271,10.44,72886.5,-7.99,-34.25,-34.89,0,*53
1486515628.91,35272,10.44,72884.5,-7.99,-34.25,-34.89,0,*50
1486515630.18,35273,10.44,72890.0,-7.99,-34.25,-34.95,0,*5C
1486515631.42,35274,10.44,72884.5,-7.99,-34.25,-34.77,0,*57
1486515632.68,35275,10.44,72888.3,-7.99,-34.41,-34.95,0,*58
1486515633.92,35276,10.44,72884.3,-7.97,-34.35,-34.89,0,*5B
1486515635.15,35277,10.44,72884.5,-7.97,-34.35,-34.89,0,*5A
1486515636.41,35278,10.44,72886.5,-7.97,-34.35,-34.83,0,*5F
1486515637.66,35279,10.44,72886.3,-7.95,-34.13,-34.83,0,*58
1486515638.9,35280,10.44,72884.8,-7.97,-34.31,-34.89,0,*56
1486515640.15,35281,10.44,72884.5,-7.97,-34.35,-34.83,0,*59
1486515641.38,35282,10.44,72886.8,-7.97,-34.35,-34.89,0,*50
1486515642.62,35283,10.44,72884.3,-7.97,-34.31,-34.89,0,*55
1486515643.85,35284,10.44,72890.8,-7.97,-34.31,-34.89,0,*52
1486515645.09,35285,10.44,72884.8,-7.97,-34.31,-34.89,0,*53
1486515646.32,35286,10.44,72886.8,-7.97,-34.31,-34.89,0,*50
1486515647.58,35287,10.44,72888.5,-7.97,-34.31,-34.83,0,*5B
1486515648.83,35288,10.44,72886.5,-7.95,-34.25,-34.83,0,*53
1486515650.06,35289,10.44,72884.5,-7.97,-34.31,-34.89,0,*5F
1486515651.3,35290,10.44,72884.8,-7.97,-34.31,-35.01,0,*56
1486515652.54,35291,10.44,72884.3,-7.95,-34.25,-35.01,0,*50
1486515653.77,35292,10.44,72884.5,-7.97,-34.31,-34.89,0,*55
1486515654.98,35293,10.44,72884.5,-7.97,-34.47,-34.89,0,*55
1486515656.22,35294,10.44,72884.8,-7.95,-34.25,-35.01,0,*55
1486515657.48,35295,10.44,72884.0,-7.95,-34.31,-35.01,0,*51
1486515658.75,35296,10.44,72886.0,-7.95,-34.31,-35.01,0,*52
1486515660.01,35297,10.44,72886.0,-7.95,-34.31,-35.01,0,*53
1486515661.25,35298,10.44,72884.3,-7.97,-34.31,-35.01,0,*5E
1486515662.49,35299,10.44,72886.3,-7.97,-34.35,-35.01,0,*5B
1486515663.77,35300,10.44,72884.8,-7.95,-34.31,-35.07,0,*5A
1486515665.01,35301,10.44,72884.5,-7.97,-34.35,-35.01,0,*5B
1486515666.3,35302,10.44,72886.5,-7.95,-34.31,-34.95,0,*52
1486515667.52,35303,10.44,72888.5,-7.97,-34.47,-35.01,0,*5C
1486515668.78,35304,10.44,72886.0,-7.95,-34.25,-34.95,0,*51
1486515670.01,35305,10.44,72888.3,-7.93,-34.25,-34.83,0,*51
1486515671.25,35306,10.44,72886.5,-7.97,-34.35,-35.01,0,*5C
1486515672.53,35307,10.44,72886.0,-7.95,-34.31,-34.95,0,*57
1486515673.8,35308,10.44,72886.8,-7.95,-34.31,-35.01,0,*54
1486515675.06,35309,10.44,72882.8,-7.95,-34.31,-35.01,0,*55
1486515676.3,35310,10.44,72884.8,-7.93,-34.31,-35.01,0,*5B
1486515677.58,35311,10.44,72886.8,-7.95,-34.31,-34.95,0,*50
1486515678.84,35312,10.44,72884.3,-7.97,-34.31,-35.07,0,*5B
1486515680.11,35313,10.44,72886.3,-7.95,-34.31,-35.01,0,*5E
1486515681.37,35314,10.44,72888.8,-7.95,-34.25,-34.95,0,*50
1486515682.62,35315,10.44,72884.5,-7.95,-34.25,-34.83,0,*56
1486515683.88,35316,10.44,72886.8,-7.97,-34.31,-34.83,0,*52
1486515685.13,35317,10.44,72884.3,-7.95,-34.25,-34.95,0,*53
1486515686.4,35318,10.44,72888.0,-7.95,-34.13,-34.95,0,*59
1486515687.66,35319,10.44,72884.3,-7.95,-34.25,-34.95,0,*5D
1486515688.86,35320,10.44,72884.8,-7.93,-34.41,-35.01,0,*5F
1486515690.1,35321,10.44,72888.3,-7.93,-34.31,-35.01,0,*59
1486515691.34,35322,10.44,72888.0,-7.93,-34.31,-35.01,0,*5A
1486515692.6,35323,10.44,72890.0,-7.93,-34.31,-34.95,0,*57
1486515693.86,35324,10.44,72888.3,-7.93,-34.31,-34.95,0,*50
1486515695.12,35325,10.44,72886.0,-7.93,-34.31,-34.95,0,*51
1486515696.35,35326,10.44,72888.8,-7.93,-34.31,-35.01,0,*5E
1486515697.59,35327,10.44,72888.0,-7.93,-34.25,-34.95,0,*56
1486515698.85,35328,10.44,72888.8,-7.91,-34.25,-34.95,0,*5B
1486515700.08,35329,10.44,72890.3,-7.93,-34.25,-34.95,0,*58
1486515701.34,35330,10.44,72888.0,-7.93,-34.31,-34.95,0,*55
1486515702.57,35331,10.44,72886.5,-7.93,-34.31,-35.01,0,*58
1486515703.84,35332,10.44,72890.5,-7.89,-34.19,-34.95,0,*56
1486515705.07,35333,10.44,72884.8,-7.93,-34.31,-35.01,0,*5A
1486515706.33,35334,10.44,72886.3,-7.93,-34.31,-35.07,0,*5B
1486515707.57,35335,10.44,72888.8,-7.91,-34.25,-35.01,0,*5B
1486515708.8,35336,10.44,72886.8,-7.93,-34.31,-35.01,0,*5F
1486515710.01,35337,10.44,72888.0,-7.93,-34.41,-35.01,0,*59
1486515711.25,35338,10.44,72886.5,-7.91,-34.41,-35.01,0,*54
1486515712.48,35339,10.44,72886.8,-7.93,-34.41,-35.07,0,*51
1486515713.69,35340,10.44,72886.3,-7.93,-34.47,-35.17,0,*58
1486515714.93,35341,10.44,72884.3,-7.91,-34.25,-35.01,0,*58
1486515716.22,35342,10.44,72886.0,-7.91,-34.35,-35.07,0,*5C
1486515717.43,35343,10.44,72888.5,-7.93,-34.41,-35.01,0,*5A
1486515718.66,35344,10.44,72886.8,-7.93,-34.47,-35.07,0,*5D
1486515719.87,35345,10.44,72886.8,-7.93,-34.47,-35.17,0,*5D
1486515721.11,35346,10.44,72888.8,-7.93,-34.35,-35.13,0,*5F
1486515722.34,35347,10.44,72886.8,-7.93,-34.47,-35.07,0,*5E
1486515723.58,35348,10.44,72888.8,-7.91,-34.41,-35.17,0,*54
1486515724.79,35349,10.44,72886.0,-7.93,-34.47,-35.17,0,*51
1486515726.0,35350,10.44,72888.5,-7.93,-34.47,-35.17,0,*59
1486515727.27,35351,10.44,72884.5,-7.91,-34.53,-35.29,0,*52
1486515728.51,35352,10.44,72886.5,-7.93,-34.59,-35.23,0,*53
1486515729.74,35353,10.44,72886.0,-7.91,-34.41,-35.17,0,*5E
1486515730.94,35354,10.44,72886.3,-7.93,-34.41,-35.17,0,*5B
1486515732.15,35355,10.44,72888.0,-7.89,-34.41,-35.13,0,*55
1486515733.36,35356,10.44,72886.8,-7.93,-34.41,-35.13,0,*5D
1486515734.6,35357,10.44,72886.0,-7.91,-34.41,-35.13,0,*5E
1486515735.86,35358,10.44,72886.0,-7.91,-34.35,-35.13,0,*52
1486515737.12,35359,10.44,72886.8,-7.91,-34.35,-35.13,0,*53
1486515738.36,35360,10.44,72886.3,-7.91,-34.41,-35.13,0,*5A
1486515739.59,35361,10.44,72884.5,-7.93,-34.41,-35.07,0,*5C
1486515740.85,35362,10.44,72890.0,-7.91,-34.35,-35.01,0,*58
1486515742.08,35363,10.44,72886.3,-7.93,-34.41,-35.07,0,*5E
1486515743.31,35364,10.44,72886.8,-7.93,-34.41,-35.07,0,*59
1486515744.55,35365,10.44,72886.8,-7.91,-34.25,-35.01,0,*5E
1486515745.82,35366,10.44,72884.3,-7.91,-34.19,-35.01,0,*52
1486515747.05,35367,10.44,72886.0,-7.91,-34.25,-35.13,0,*5F
1486515748.31,35368,10.44,72886.0,-7.93,-34.31,-35.07,0,*52
1486515749.54,35369,10.44,72888.5,-7.93,-34.41,-35.07,0,*54
1486515750.77,35370,10.44,72886.3,-7.93,-34.47,-35.07,0,*5A
1486515752.01,35371,10.44,72886.8,-7.89,-34.35,-35.01,0,*53
1486515753.28,35372,10.44,72884.0,-7.91,-34.35,-35.13,0,*5A
1486515754.52,35373,10.44,72886.5,-7.91,-34.41,-35.29,0,*51
1486515755.8,35374,10.44,72888.0,-7.91,-34.35,-35.07,0,*59
1486515757.04,35375,10.44,72884.8,-7.91,-34.25,-35.13,0,*5C
1486515758.31,35376,10.44,72888.5,-7.91,-34.35,-35.13,0,*5E
1486515759.57,35377,10.44,72886.0,-7.91,-34.35,-35.17,0,*5B
1486515760.8,35378,10.44,72886.3,-7.91,-34.25,-35.01,0,*52
1486515762.01,35379,10.44,72886.8,-7.93,-34.41,-35.17,0,*54
1486515763.25,35380,10.44,72884.8,-7.91,-34.25,-35.01,0,*55
1486515764.51,35381,10.44,72886.5,-7.91,-34.35,-35.13,0,*56
1486515765.78,35382,10.44,72884.8,-7.91,-34.35,-35.01,0,*56
1486515767.04,35383,10.44,72886.8,-7.91,-34.35,-35.13,0,*54
1486515768.28,35384,10.44,72884.5,-7.89,-34.35,-35.13,0,*5A
1486515769.51,35385,10.44,72884.3,-7.89,-34.35,-35.13,0,*5B
1486515770.72,35386,10.44,72886.8,-7.89,-34.41,-35.13,0,*5B
1486515771.94,35387,10.44,72884.8,-7.89,-34.41,-35.01,0,*59
1486515773.15,35388,10.44,72890.5,-7.89,-34.41,-35.13,0,*55
1486515774.38,35389,10.44,72884.8,-7.89,-34.35,-35.13,0,*57
1486515775.64,35390,10.44,72886.8,-7.85,-34.35,-35.17,0,*57
1486515776.85,35391,10.44,72886.0,-7.89,-34.41,-35.17,0,*59
1486515778.08,35392,10.44,72886.5,-7.89,-34.35,-35.17,0,*59
1486515779.3,35393,10.44,72886.8,-7.89,-34.41,-35.01,0,*5C
1486515780.58,35394,10.44,72886.8,-7.85,-34.31,-35.23,0,*50
1486515781.83,35395,10.44,72886.0,-7.85,-34.47,-35.13,0,*53
1486515783.07,35396,10.44,72880.8,-7.89,-34.53,-35.29,0,*50
1486515784.32,35397,10.44,72884.8,-7.89,-34.53,-35.29,0,*51
1486515785.58,35398,10.44,72886.3,-7.91,-34.53,-35.17,0,*5A
1486515786.8,35399,10.44,72886.3,-7.89,-34.59,-35.17,0,*58
1486515788.03,35400,10.44,72890.5,-7.89,-34.53,-35.17,0,*55
1486515789.3,35401,10.44,72886.8,-7.85,-34.31,-35.13,0,*58
1486515790.58,35402,10.44,72884.0,-7.85,-34.35,-35.23,0,*5C
1486515791.82,35403,10.44,72888.3,-7.89,-34.35,-35.29,0,*5B
1486515793.07,35404,10.44,72886.8,-7.89,-34.53,-35.29,0,*5C
1486515794.31,35405,10.44,72888.3,-7.89,-34.59,-35.35,0,*5A
1486515795.55,35406,10.44,72886.3,-7.89,-34.59,-35.35,0,*59
1486515796.79,35407,10.44,72886.3,-7.89,-34.59,-35.35,0,*58
1486515798.03,35408,10.44,72886.0,-7.89,-34.53,-35.47,0,*58
1486515799.25,35409,10.44,72884.0,-7.89,-34.77,-35.47,0,*5F
1486515800.47,35410,10.44,72884.5,-7.89,-34.71,-35.47,0,*51
1486515801.7,35411,10.44,72886.0,-7.91,-34.41,-35.17,0,*5F
1486515802.95,35412,10.44,72886.8,-7.91,-34.59,-35.29,0,*58
1486515804.21,35413,10.44,72882.3,-7.91,-34.59,-35.35,0,*54
1486515805.46,35414,10.44,72884.5,-7.91,-34.59,-35.47,0,*56
1486515806.75,35415,10.44,72886.3,-7.91,-34.53,-35.35,0,*58
1486515808.02,35416,10.44,72890.0,-7.91,-34.59,-35.35,0,*51
1486515809.24,35417,10.44,72890.5,-7.89,-34.71,-35.47,0,*56
1486515810.46,35418,10.44,72884.8,-7.89,-34.71,-35.47,0,*59
1486515811.7,35419,10.44,72884.8,-7.89,-34.59,-35.35,0,*57
1486515812.97,35420,10.44,72886.5,-7.85,-34.53,-35.29,0,*56
1486515814.19,35421,10.44,72884.3,-7.89,-34.71,-35.47,0,*53
1486515815.43,35422,10.44,72884.0,-7.89,-34.71,-35.35,0,*55
1486515816.65,35423,10.44,72890.3,-7.89,-34.59,-35.47,0,*5B
1486515817.89,35424,10.44,72884.5,-7.91,-34.59,-35.47,0,*55
1486515819.14,35425,10.44,72884.5,-7.91,-34.59,-35.47,0,*54
1486515820.38,35426,10.44,72890.3,-7.91,-34.59,-35.29,0,*5F
1486515821.66,35427,10.44,72886.0,-7.91,-34.53,-35.29,0,*54
1486515822.93,35428,10.44,72884.0,-7.91,-34.53,-35.29,0,*5B
1486515824.19,35429,10.44,72884.8,-7.89,-34.53,-35.35,0,*5E
1486515825.44,35430,10.44,72880.3,-7.89,-34.53,-35.29,0,*5B
1486515826.68,35431,10.44,72880.0,-7.89,-34.53,-35.29,0,*5A
1486515827.89,35432,10.44,72888.0,-7.89,-34.41,-35.29,0,*5A
1486515829.13,35433,10.44,72884.5,-7.89,-34.35,-35.17,0,*55
1486515830.39,35434,10.44,72890.8,-7.89,-34.53,-35.35,0,*52
1486515831.64,35435,10.44,72884.8,-7.89,-34.53,-35.29,0,*5E
1486515832.84,35436,10.44,72884.0,-7.89,-34.41,-35.17,0,*53
1486515834.08,35437,10.44,72884.3,-7.89,-34.35,-35.29,0,*5C
1486515835.33,35438,10.44,72884.3,-7.85,-34.47,-35.13,0,*53
1486515836.57,35439,10.44,72884.0,-7.89,-34.53,-35.29,0,*52
1486515837.84,35440,10.44,72886.8,-7.85,-34.47,-35.23,0,*5F
1486515839.09,35441,10.44,72886.3,-7.89,-34.53,-35.29,0,*5D
1486515840.3,35442,10.44,72882.8,-7.89,-34.41,-35.29,0,*5D
1486515841.51,35443,10.44,72886.8,-7.89,-34.41,-35.29,0,*5C
1486515842.76,35444,10.44,72882.8,-7.85,-34.47,-35.29,0,*51
1486515844.01,35445,10.44,72884.8,-7.89,-34.53,-35.29,0,*59
1486515845.29,35446,10.44,72886.0,-7.85,-34.31,-35.23,0,*58
1486515846.58,35447,10.44,72884.3,-7.85,-34.35,-35.23,0,*5D
1486515847.82,35448,10.44,72880.8,-7.85,-34.47,-35.13,0,*54
1486515849.07,35449,10.44,72884.8,-7.85,-34.47,-35.13,0,*55
1486515850.32,35450,10.44,72884.8,-7.85,-34.47,-35.29,0,*54
1486515851.59,35451,10.44,72884.5,-7.85,-34.47,-35.23,0,*5F
1486515852.85,35452,10.44,72884.3,-7.85,-34.47,-35.23,0,*5C
1486515854.09,35453,10.44,72884.0,-7.89,-34.53,-35.17,0,*53
1486515855.33,35454,10.44,72886.3,-7.89,-34.53,-35.47,0,*51
1486515856.62,35455,10.44,72884.8,-7.85,-34.35,-35.23,0,*5E
1486515857.91,35456,10.44,72886.0,-7.85,-34.53,-35.23,0,*5D
1486515859.17,35457,10.44,72882.0,-7.85,-34.47,-35.23,0,*59
1486515860.42,35458,10.44,72886.8,-7.85,-34.47,-35.29,0,*5C
1486515861.72,35459,10.44,72886.8,-7.85,-34.53,-35.41,0,*56
1486515862.97,35460,10.44,72884.8,-7.85,-34.47,-35.29,0,*57
1486515864.23,35461,10.44,72884.3,-7.85,-34.35,-35.13,0,*5A
1486515865.52,35462,10.44,72886.3,-7.85,-34.53,-35.23,0,*5A
1486515866.79,35463,10.44,72886.3,-7.85,-34.47,-35.41,0,*5A
1486515868.06,35464,10.44,72888.3,-7.85,-34.47,-35.23,0,*59
1486515869.33,35465,10.44,72886.0,-7.83,-34.53,-35.23,0,*5B
1486515870.6,35466,10.44,72886.8,-7.85,-34.53,-35.29,0,*54
1486515871.87,35467,10.44,72886.8,-7.85,-34.53,-35.29,0,*55
1486515873.1,35468,10.44,72884.0,-7.83,-34.47,-35.29,0,*59
1486515874.35,35469,10.44,72882.0,-7.83,-34.47,-35.41,0,*56
1486515875.63,35470,10.44,72886.5,-7.83,-34.65,-35.41,0,*5E
1486515876.92,35471,10.44,72886.3,-7.81,-34.65,-35.35,0,*5E
1486515878.2,35472,10.44,72884.5,-7.83,-34.65,-35.41,0,*5C
1486515879.47,35473,10.44,72882.5,-7.83,-34.65,-35.41,0,*5D
1486515880.74,35474,10.44,72886.5,-7.83,-34.65,-35.41,0,*5A
1486515882.02,35475,10.44,72884.5,-7.83,-34.65,-35.41,0,*5B
1486515883.29,35476,10.44,72884.0,-7.83,-34.65,-35.41,0,*58
1486515884.54,35477,10.44,72884.8,-7.83,-34.53,-35.29,0,*52
1486515885.81,35478,10.44,72886.0,-7.81,-34.47,-35.35,0,*57
1486515887.09,35479,10.44,72884.3,-7.81,-34.65,-35.47,0,*53
1486515888.34,35480,10.44,72882.8,-7.83,-34.65,-35.47,0,*57
1486515889.61,35481,10.44,72886.3,-7.81,-34.59,-35.35,0,*5E
1486515890.86,35482,10.44,72884.5,-7.83,-34.71,-35.41,0,*56
1486515892.13,35483,10.44,72884.3,-7.81,-34.47,-35.35,0,*53
1486515893.4,35484,10.44,72884.5,-7.83,-34.65,-35.41,0,*55
1486515894.65,35485,10.44,72886.5,-7.83,-34.65,-35.29,0,*5A
1486515895.91,35486,10.44,72886.0,-7.83,-34.65,-35.29,0,*59
1486515897.2,35487,10.44,72888.3,-7.81,-34.65,-35.23,0,*50
1486515898.45,35488,10.44,72884.0,-7.83,-34.65,-35.29,0,*57
1486515899.72,35489,10.44,72886.8,-7.83,-34.65,-35.41,0,*58
1486515900.99,35490,10.44,72888.0,-7.81,-34.59,-35.23,0,*59
1486515902.22,35491,10.44,72888.8,-7.83,-34.71,-35.29,0,*5A
1486515903.51,35492,10.44,72884.0,-7.81,-34.65,-35.35,0,*53
1486515904.81,35493,10.44,72880.0,-7.81,-34.65,-35.35,0,*52
1486515906.06,35494,10.44,72884.8,-7.83,-34.65,-35.29,0,*5A
1486515907.35,35495,10.44,72884.5,-7.81,-34.65,-35.35,0,*54
1486515908.6,35496,10.44,72886.5,-7.83,-34.71,-35.41,0,*53
1486515909.87,35497,10.44,72882.3,-7.81,-34.59,-35.23,0,*5E
1486515911.16,35498,10.44,72886.5,-7.81,-34.65,-35.41,0,*5A
1486515912.43,35499,10.44,72880.8,-7.81,-34.59,-35.23,0,*50
1486515913.72,35500,10.44,72886.0,-7.81,-34.65,-35.35,0,*59
1486515914.99,35501,10.44,72882.3,-7.81,-34.59,-35.23,0,*50
1486515916.28,35502,10.44,72886.0,-7.81,-34.65,-35.35,0,*5B
1486515917.55,35503,10.44,72884.3,-7.81,-34.59,-35.35,0,*55
1486515918.82,35504,10.44,72884.8,-7.81,-34.59,-35.35,0,*52
1486515920.05,35505,10.44,72884.5,-7.83,-34.71,-35.47,0,*5E
1486515921.29,35506,10.44,72886.8,-7.79,-34.77,-35.53,0,*5B
1486515922.58,35507,10.44,72884.0,-7.81,-34.83,-35.41,0,*55
1486515923.81,35508,10.44,72886.5,-7.83,-34.71,-35.47,0,*53
1486515925.08,35509,10.44,72886.0,-7.81,-34.77,-35.41,0,*50
1486515926.37,35510,10.44,72886.5,-7.81,-34.83,-35.41,0,*53
1486515927.66,35511,10.44,72882.5,-7.81,-34.65,-35.41,0,*5A
1486515928.96,35512,10.44,72884.5,-7.81,-34.65,-35.41,0,*59
1486515930.23,35513,10.44,72882.3,-7.81,-34.77,-35.53,0,*58
1486515931.49,35514,10.44,72884.0,-7.81,-34.77,-35.41,0,*5C
1486515932.72,35515,10.44,72886.3,-7.83,-34.71,-35.47,0,*5F
1486515933.97,35516,10.44,72880.8,-7.83,-34.83,-35.47,0,*51
1486515935.21,35517,10.44,72884.5,-7.79,-34.77,-35.41,0,*58
1486515936.5,35518,10.44,72882.3,-7.81,-34.65,-35.35,0,*50
1486515937.75,35519,10.44,72888.3,-7.83,-34.71,-35.41,0,*55
1486515939.02,35520,10.44,72886.8,-7.81,-34.77,-35.35,0,*58
1486515940.31,35521,10.44,72882.3,-7.81,-34.83,-35.53,0,*52
1486515941.6,35522,10.44,72886.0,-7.81,-34.83,-35.53,0,*51
1486515942.87,35523,10.44,72884.3,-7.81,-34.77,-35.53,0,*5B
1486515944.14,35524,10.44,72880.3,-7.81,-34.77,-35.41,0,*5F
1486515945.41,35525,10.44,72886.3,-7.81,-34.77,-35.53,0,*5D
1486515946.68,35526,10.44,72884.8,-7.81,-34.77,-35.53,0,*5E
1486515947.95,35527,10.44,72884.3,-7.81,-34.77,-35.53,0,*5F
1486515949.22,35528,10.44,72884.0,-7.81,-34.77,-35.41,0,*53
1486515950.48,35529,10.44,72884.0,-7.81,-34.77,-35.41,0,*52
1486515951.75,35530,10.44,72884.0,-7.79,-34.65,-35.41,0,*5E
1486515953.02,35531,10.44,72886.3,-7.79,-34.83,-35.53,0,*54
1486515954.26,35532,10.44,72886.3,-7.79,-34.77,-35.53,0,*5C
1486515955.52,35533,10.44,72884.3,-7.79,-34.83,-35.53,0,*56
1486515956.81,35534,10.44,72886.5,-7.81,-34.83,-35.53,0,*56
1486515958.08,35535,10.44,72884.0,-7.81,-34.83,-35.59,0,*5D
1486515959.37,35536,10.44,72884.0,-7.81,-34.83,-35.53,0,*54
1486515960.64,35537,10.44,72884.5,-7.81,-34.77,-35.41,0,*5D
1486515961.93,35538,10.44,72882.8,-7.81,-34.65,-35.53,0,*52
1486515963.17,35539,10.44,72884.8,-7.79,-34.77,-35.41,0,*54
1486515964.47,35540,10.44,72884.3,-7.81,-34.65,-35.41,0,*5E
1486515965.74,35541,10.44,72886.0,-7.81,-34.77,-35.41,0,*5C
1486515967.01,35542,10.44,72884.0,-7.81,-34.77,-35.53,0,*5C
1486515968.27,35543,10.44,72882.8,-7.81,-34.77,-35.53,0,*5D
1486515969.57,35544,10.44,72884.5,-7.81,-34.83,-35.53,0,*51
1486515970.86,35545,10.44,72884.8,-7.81,-34.83,-35.53,0,*50
1486515972.15,35546,10.44,72884.3,-7.81,-34.83,-35.53,0,*53
1486515973.44,35547,10.44,72884.0,-7.81,-34.83,-35.53,0,*52
1486515974.71,35548,10.44,72882.5,-7.79,-34.83,-35.41,0,*59
1486515976.0,35549,10.44,72880.8,-7.81,-34.83,-35.53,0,*5C
1486515977.24,35550,10.44,72884.8,-7.79,-34.83,-35.71,0,*53
1486515978.47,35551,10.44,72886.0,-7.79,-34.83,-35.59,0,*58
1486515979.74,35552,10.44,72886.0,-7.81,-34.77,-35.53,0,*5D
1486515981.04,35553,10.44,72884.3,-7.81,-34.83,-35.53,0,*57
1486515982.27,35554,10.44,72884.8,-7.81,-34.89,-35.59,0,*50
1486515983.51,35555,10.44,72886.3,-7.81,-34.89,-35.71,0,*5B
1486515984.79,35556,10.44,72880.5,-7.77,-34.83,-35.53,0,*5B
1486515986.04,35557,10.44,72884.8,-7.79,-34.77,-35.41,0,*5C
1486515987.3,35558,10.44,72884.8,-7.79,-34.83,-35.53,0,*5B
1486515988.51,35559,10.44,72882.8,-7.79,-34.89,-35.59,0,*5A
1486515989.75,35560,10.44,72882.0,-7.79,-34.83,-35.59,0,*5A
1486515990.98,35561,10.44,72884.3,-7.79,-34.89,-35.53,0,*5B
1486515992.19,35562,10.44,72884.3,-7.79,-34.89,-35.59,0,*52
1486515993.4,35563,10.44,72886.3,-7.79,-34.89,-35.59,0,*53
1486515994.63,35564,10.44,72886.5,-7.79,-34.89,-35.53,0,*5E
1486515995.87,35565,10.44,72884.5,-7.79,-34.77,-35.53,0,*5E
1486515997.11,35566,10.44,72886.3,-7.77,-34.77,-35.47,0,*56
1486515998.35,35567,10.44,72884.3,-7.79,-34.83,-35.59,0,*5D
1486515999.59,35568,10.44,72882.0,-7.79,-34.77,-35.53,0,*53
1486516000.8,35569,10.44,72884.8,-7.79,-34.89,-35.71,0,*53
1486516002.06,35570,10.44,72884.3,-7.77,-34.77,-35.53,0,*54
1486516003.28,35571,10.44,72882.5,-7.79,-34.77,-35.47,0,*5E
1486516004.52,35572,10.44,72884.3,-7.79,-34.89,-35.53,0,*59
1486516005.75,35573,10.44,72884.3,-7.79,-34.89,-35.53,0,*58
1486516006.96,35574,10.44,72882.5,-7.79,-34.89,-35.59,0,*55
1486516008.25,35575,10.44,72884.8,-7.77,-34.83,-35.53,0,*5A
1486516009.49,35576,10.44,72882.5,-7.79,-34.83,-35.59,0,*5D
1486516010.72,35577,10.44,72886.8,-7.79,-34.83,-35.71,0,*56
1486516011.96,35578,10.44,72886.5,-7.79,-34.95,-35.59,0,*54
1486516013.18,35579,10.44,72884.5,-7.79,-35.01,-35.71,0,*53
1486516014.41,35580,10.44,72884.8,-7.79,-34.89,-35.53,0,*54
1486516015.68,35581,10.44,72888.0,-7.77,-34.95,-35.71,0,*56
1486516016.88,35582,10.44,72886.3,-7.79,-34.89,-35.59,0,*5C
1486516018.1,35583,10.44,72886.5,-7.79,-35.01,-35.71,0,*56
1486516019.32,35584,10.44,72882.5,-7.79,-34.89,-35.77,0,*56
1486516020.54,35585,10.44,72884.3,-7.79,-35.01,-35.77,0,*56
1486516021.75,35586,10.44,72882.5,-7.79,-34.89,-35.77,0,*54
1486516022.97,35587,10.44,72884.8,-7.79,-35.01,-35.71,0,*52
1486516024.18,35588,10.44,72882.0,-7.79,-35.01,-35.71,0,*5D
1486516025.43,35589,10.44,72886.0,-7.81,-35.01,-35.71,0,*5B
1486516026.67,35590,10.44,72882.3,-7.81,-35.01,-35.71,0,*53
1486516027.89,35591,10.44,72884.8,-7.79,-35.01,-35.77,0,*53
1486516029.1,35592,10.44,72886.3,-7.79,-34.89,-35.71,0,*57
1486516030.32,35593,10.44,72886.8,-7.79,-35.01,-35.71,0,*57
1486516031.53,35594,10.44,72886.8,-7.79,-35.01,-35.71,0,*50
1486516032.75,35595,10.44,72880.5,-7.79,-35.01,-35.77,0,*57
1486516033.97,35596,10.44,72886.0,-7.79,-34.89,-35.77,0,*55
1486516035.19,35597,10.44,72882.0,-7.79,-35.01,-35.77,0,*55
1486516036.4,35598,10.44,72884.3,-7.79,-34.89,-35.71,0,*5D
1486516037.61,35599,10.44,72884.3,-7.79,-34.89,-35.59,0,*56
1486516038.82,35600,10.44,72882.5,-7.79,-34.89,-35.71,0,*5F
1486516040.08,35601,10.44,72882.8,-7.77,-34.95,-35.71,0,*5D
1486516041.33,35602,10.44,72884.3,-7.79,-35.07,-35.77,0,*5C
1486516042.53,35603,10.44,72884.5,-7.79,-34.89,-35.71,0,*5C
1486516043.78,35604,10.44,72884.3,-7.81,-35.01,-35.71,0,*5D
1486516044.98,35605,10.44,72886.0,-7.79,-34.89,-35.59,0,*50
1486516046.19,35606,10.44,72886.3,-7.79,-34.89,-35.71,0,*59
1486516047.4,35607,10.44,72886.3,-7.79,-34.89,-35.59,0,*52
1486516048.62,35608,10.44,72888.8,-7.79,-35.01,-35.59,0,*5C
1486516049.82,35609,10.44,72884.0,-7.79,-34.89,-35.59,0,*5C
1486516051.11,35610,10.44,72884.0,-7.77,-34.95,-35.65,0,*58
1486516052.33,35611,10.44,72886.5,-7.79,-35.01,-35.77,0,*58
1486516053.55,35612,10.44,72886.8,-7.79,-35.01,-35.71,0,*5D
1486516054.79,35613,10.44,72886.3,-7.79,-35.07,-35.77,0,*5C
1486516056.06,35614,10.44,72886.3,-7.77,-35.01,-35.65,0,*50
1486516057.28,35615,10.44,72882.5,-7.79,-35.01,-35.77,0,*5C
1486516058.49,35616,10.44,72886.8,-7.79,-35.01,-35.71,0,*59
1486516059.78,35617,10.44,72886.0,-7.77,-34.83,-35.65,0,*58
1486516060.99,35618,10.44,72882.0,-7.79,-34.89,-35.71,0,*56
1486516062.2,35619,10.44,72888.3,-7.79,-34.89,-35.71,0,*57
1486516063.41,35620,10.44,72886.5,-7.79,-35.01,-35.71,0,*5C
1486516064.63,35621,10.44,72884.0,-7.79,-35.01,-35.77,0,*5B
1486516065.84,35622,10.44,72886.0,-7.79,-34.89,-35.71,0,*5F
1486516067.07,35623,10.44,72884.5,-7.79,-35.01,-35.77,0,*59
1486516068.31,35624,10.44,72882.0,-7.79,-35.07,-35.77,0,*58
1486516069.53,35625,10.44,72884.5,-7.79,-35.01,-35.77,0,*5F
1486516070.76,35626,10.44,72882.8,-7.79,-35.01,-35.77,0,*5C
1486516071.97,35627,10.44,72886.0,-7.79,-34.89,-35.71,0,*5A
1486516073.19,35628,10.44,72888.3,-7.79,-35.01,-35.77,0,*52
1486516074.4,35629,10.44,72884.3,-7.79,-35.01,-35.71,0,*55
1486516075.65,35630,10.44,72882.0,-7.79,-35.07,-35.77,0,*5D
1486516076.9,35631,10.44,72886.8,-7.79,-35.07,-35.89,0,*5D
1486516078.11,35632,10.44,72884.8,-7.79,-35.17,-35.77,0,*5E
1486516079.36,35633,10.44,72884.0,-7.79,-35.07,-35.89,0,*5F
1486516080.58,35634,10.44,72886.3,-7.79,-35.17,-35.89,0,*59
1486516081.82,35635,10.44,72886.8,-7.79,-35.07,-35.71,0,*5E
1486516083.03,35636,10.44,72886.3,-7.79,-35.17,-35.77,0,*5A
1486516084.28,35637,10.44,72884.0,-7.77,-35.01,-35.89,0,*53
1486516085.5,35638,10.44,72884.8,-7.79,-35.17,-35.77,0,*54
1486516086.74,35639,10.44,72886.0,-7.79,-35.07,-35.77,0,*54
1486516087.98,35640,10.44,72882.8,-7.81,-35.17,-35.77,0,*5C
1486516089.26,35641,10.44,72886.5,-7.81,-35.23,-35.89,0,*5B
1486516090.53,35642,10.44,72886.8,-7.81,-35.07,-35.89,0,*5E
1486516091.78,35643,10.44,72880.3,-7.79,-35.07,-35.89,0,*58
1486516093.06,35644,10.44,72886.0,-7.81,-35.07,-35.89,0,*58
1486516094.3,35645,10.44,72886.5,-7.81,-35.17,-35.89,0,*58
1486516095.52,35646,10.44,72886.5,-7.79,-35.17,-35.89,0,*5C
1486516096.76,35647,10.44,72886.8,-7.81,-35.17,-35.77,0,*5B
1486516098.0,35648,10.44,72886.0,-7.81,-35.17,-35.89,0,*55